owner,sensor,date,latitude,longitude,air_pressure(mBar),qcFlag 
WAVCIS,ioos:station:WAVCIS:CSI09:1,2008-01-01T00:00:00Z,29.1015,-89.9782,1017.33,11111222 
WAVCIS,ioos:station:WAVCIS:CSI09:1,2008-01-01T01:00:00Z,29.1015,-89.9782,1018.19,11111222 
WAVCIS,ioos:station:WAVCIS:CSI09:1,2008-01-01T02:00:00Z,29.1015,-89.9782,1019.21,11111222 
WAVCIS,ioos:station:WAVCIS:CSI09:1,2008-01-01T03:00:00Z,29.1015,-89.9782,1019.75,11111222 
WAVCIS,ioos:station:WAVCIS:CSI09:1,2008-01-01T04:00:00Z,29.1015,-89.9782,1020.71,11111222 
WAVCIS,ioos:station:WAVCIS:CSI09:1,2008-01-01T05:00:00Z,29.1015,-89.9782,1021.07,11111222 
WAVCIS,ioos:station:WAVCIS:CSI09:1,2008-01-01T06:00:00Z,29.1015,-89.9782,1021.43,11111222 
WAVCIS,ioos:station:WAVCIS:CSI09:1,2008-01-01T07:00:00Z,29.1015,-89.9782,1021.78,11111222 
WAVCIS,ioos:station:WAVCIS:CSI09:1,2008-01-01T08:00:00Z,29.1015,-89.9782,1022.05,11111222 
WAVCIS,ioos:station:WAVCIS:CSI09:1,2008-01-01T09:00:00Z,29.1015,-89.9782,1022.18,11111222 
WAVCIS,ioos:station:WAVCIS:CSI09:1,2008-01-01T10:00:00Z,29.1015,-89.9782,1023.16,11111222 
WAVCIS,ioos:station:WAVCIS:CSI09:1,2008-01-01T11:00:00Z,29.1015,-89.9782,1024.5,11111222 
WAVCIS,ioos:station:WAVCIS:CSI09:1,2008-01-01T12:00:00Z,29.1015,-89.9782,1025.66,11111222 
WAVCIS,ioos:station:WAVCIS:CSI09:1,2008-01-01T13:00:00Z,29.1015,-89.9782,1026.8,11111222 
WAVCIS,ioos:station:WAVCIS:CSI09:1,2008-01-01T14:00:00Z,29.1015,-89.9782,1028.36,11111222 
WAVCIS,ioos:station:WAVCIS:CSI09:1,2008-01-01T15:00:00Z,29.1015,-89.9782,1029.29,11111222 
WAVCIS,ioos:station:WAVCIS:CSI09:1,2008-01-01T16:00:00Z,29.1015,-89.9782,1029.96,11111222 
WAVCIS,ioos:station:WAVCIS:CSI09:1,2008-01-01T17:00:00Z,29.1015,-89.9782,1030.43,11111222 
WAVCIS,ioos:station:WAVCIS:CSI09:1,2008-01-01T18:00:00Z,29.1015,-89.9782,1030.03,11111222 
WAVCIS,ioos:station:WAVCIS:CSI09:1,2008-01-01T19:00:00Z,29.1015,-89.9782,1029.37,11111222 
WAVCIS,ioos:station:WAVCIS:CSI09:1,2008-01-01T20:00:00Z,29.1015,-89.9782,1029.35,11111222 
WAVCIS,ioos:station:WAVCIS:CSI09:1,2008-01-01T21:00:00Z,29.1015,-89.9782,1029.46,11111222 
WAVCIS,ioos:station:WAVCIS:CSI09:1,2008-01-01T22:00:00Z,29.1015,-89.9782,1030.03,11111222 
WAVCIS,ioos:station:WAVCIS:CSI09:1,2008-01-01T23:00:00Z,29.1015,-89.9782,1030.53,11111222 
WAVCIS,ioos:station:WAVCIS:CSI09:1,2008-01-02T00:00:00Z,29.1015,-89.9782,1031.36,11111222 
WAVCIS,ioos:station:WAVCIS:CSI09:1,2008-01-02T01:00:00Z,29.1015,-89.9782,1032.21,11111222 
WAVCIS,ioos:station:WAVCIS:CSI09:1,2008-01-02T02:00:00Z,29.1015,-89.9782,1033.12,11111222 
WAVCIS,ioos:station:WAVCIS:CSI09:1,2008-01-02T03:00:00Z,29.1015,-89.9782,1033.94,11111222 
WAVCIS,ioos:station:WAVCIS:CSI09:1,2008-01-02T04:00:00Z,29.1015,-89.9782,1034.23,11111222 
WAVCIS,ioos:station:WAVCIS:CSI09:1,2008-01-02T05:00:00Z,29.1015,-89.9782,1034.19,11111222 
WAVCIS,ioos:station:WAVCIS:CSI09:1,2008-01-02T06:00:00Z,29.1015,-89.9782,1034.01,11111222 
WAVCIS,ioos:station:WAVCIS:CSI09:1,2008-01-02T07:00:00Z,29.1015,-89.9782,1034.16,11111222 
WAVCIS,ioos:station:WAVCIS:CSI09:1,2008-01-02T08:00:00Z,29.1015,-89.9782,1034.16,11111222 
WAVCIS,ioos:station:WAVCIS:CSI09:1,2008-01-02T09:00:00Z,29.1015,-89.9782,1034.28,11111222 
WAVCIS,ioos:station:WAVCIS:CSI09:1,2008-01-02T10:00:00Z,29.1015,-89.9782,1034.65,11111222 
WAVCIS,ioos:station:WAVCIS:CSI09:1,2008-01-02T11:00:00Z,29.1015,-89.9782,1035.0,11111222 
WAVCIS,ioos:station:WAVCIS:CSI09:1,2008-01-02T12:00:00Z,29.1015,-89.9782,1035.9,11111222 
WAVCIS,ioos:station:WAVCIS:CSI09:1,2008-01-02T13:00:00Z,29.1015,-89.9782,1036.31,11111222 
WAVCIS,ioos:station:WAVCIS:CSI09:1,2008-01-02T14:00:00Z,29.1015,-89.9782,1037.41,11111222 
WAVCIS,ioos:station:WAVCIS:CSI09:1,2008-01-02T15:00:00Z,29.1015,-89.9782,1038.82,11111222 
WAVCIS,ioos:station:WAVCIS:CSI09:1,2008-01-02T16:00:00Z,29.1015,-89.9782,1039.11,11111222 
WAVCIS,ioos:station:WAVCIS:CSI09:1,2008-01-02T17:00:00Z,29.1015,-89.9782,1038.83,11111222 
WAVCIS,ioos:station:WAVCIS:CSI09:1,2008-01-02T18:00:00Z,29.1015,-89.9782,1038.13,11111222 
WAVCIS,ioos:station:WAVCIS:CSI09:1,2008-01-02T19:00:00Z,29.1015,-89.9782,1037.44,11111222 
WAVCIS,ioos:station:WAVCIS:CSI09:1,2008-01-02T20:00:00Z,29.1015,-89.9782,1037.09,11111222 
WAVCIS,ioos:station:WAVCIS:CSI09:1,2008-01-02T21:00:00Z,29.1015,-89.9782,1036.99,11111222 
WAVCIS,ioos:station:WAVCIS:CSI09:1,2008-01-02T22:00:00Z,29.1015,-89.9782,1037.07,11111222 
WAVCIS,ioos:station:WAVCIS:CSI09:1,2008-01-02T23:00:00Z,29.1015,-89.9782,1037.25,11111222 
WAVCIS,ioos:station:WAVCIS:CSI09:1,2008-01-03T00:00:00Z,29.1015,-89.9782,1037.66,11111222 
WAVCIS,ioos:station:WAVCIS:CSI09:1,2008-01-03T01:00:00Z,29.1015,-89.9782,1037.91,11111222 
WAVCIS,ioos:station:WAVCIS:CSI09:1,2008-01-03T02:00:00Z,29.1015,-89.9782,1038.63,11111222 
WAVCIS,ioos:station:WAVCIS:CSI09:1,2008-01-03T03:00:00Z,29.1015,-89.9782,1039.14,11111222 
WAVCIS,ioos:station:WAVCIS:CSI09:1,2008-01-03T04:00:00Z,29.1015,-89.9782,1039.8,11111222 
WAVCIS,ioos:station:WAVCIS:CSI09:1,2008-01-03T05:00:00Z,29.1015,-89.9782,1039.66,11111222 
WAVCIS,ioos:station:WAVCIS:CSI09:1,2008-01-03T06:00:00Z,29.1015,-89.9782,1039.33,11111222 
WAVCIS,ioos:station:WAVCIS:CSI09:1,2008-01-03T07:00:00Z,29.1015,-89.9782,1039.07,11111222 
WAVCIS,ioos:station:WAVCIS:CSI09:1,2008-01-03T08:00:00Z,29.1015,-89.9782,1039.01,11111222 
WAVCIS,ioos:station:WAVCIS:CSI09:1,2008-01-03T09:00:00Z,29.1015,-89.9782,1039.0,11111222 
WAVCIS,ioos:station:WAVCIS:CSI09:1,2008-01-03T10:00:00Z,29.1015,-89.9782,1039.18,11111222 
WAVCIS,ioos:station:WAVCIS:CSI09:1,2008-01-03T11:00:00Z,29.1015,-89.9782,1039.16,11111222 
WAVCIS,ioos:station:WAVCIS:CSI09:1,2008-01-03T12:00:00Z,29.1015,-89.9782,1039.96,11111222 
WAVCIS,ioos:station:WAVCIS:CSI09:1,2008-01-03T13:00:00Z,29.1015,-89.9782,1040.14,11111222 
WAVCIS,ioos:station:WAVCIS:CSI09:1,2008-01-03T14:00:00Z,29.1015,-89.9782,1040.43,11111222 
WAVCIS,ioos:station:WAVCIS:CSI09:1,2008-01-03T15:00:00Z,29.1015,-89.9782,1040.81,11111222 
WAVCIS,ioos:station:WAVCIS:CSI09:1,2008-01-03T16:00:00Z,29.1015,-89.9782,1041.11,11111222 
WAVCIS,ioos:station:WAVCIS:CSI09:1,2008-01-03T17:00:00Z,29.1015,-89.9782,1040.86,11111222 
WAVCIS,ioos:station:WAVCIS:CSI09:1,2008-01-03T18:00:00Z,29.1015,-89.9782,1040.07,11111222 
WAVCIS,ioos:station:WAVCIS:CSI09:1,2008-01-03T19:00:00Z,29.1015,-89.9782,1038.54,11111222 
WAVCIS,ioos:station:WAVCIS:CSI09:1,2008-01-03T20:00:00Z,29.1015,-89.9782,1037.58,11111222 
WAVCIS,ioos:station:WAVCIS:CSI09:1,2008-01-03T21:00:00Z,29.1015,-89.9782,1037.05,11111222 
WAVCIS,ioos:station:WAVCIS:CSI09:1,2008-01-03T22:00:00Z,29.1015,-89.9782,1037.13,11111222 
WAVCIS,ioos:station:WAVCIS:CSI09:1,2008-01-03T23:00:00Z,29.1015,-89.9782,1036.8,11111222 
WAVCIS,ioos:station:WAVCIS:CSI09:1,2008-01-04T00:00:00Z,29.1015,-89.9782,1036.57,11111222 
WAVCIS,ioos:station:WAVCIS:CSI09:1,2008-01-04T01:00:00Z,29.1015,-89.9782,1036.18,11111222 
WAVCIS,ioos:station:WAVCIS:CSI09:1,2008-01-04T02:00:00Z,29.1015,-89.9782,1036.44,11111222 
WAVCIS,ioos:station:WAVCIS:CSI09:1,2008-01-04T03:00:00Z,29.1015,-89.9782,1035.83,11111222 
WAVCIS,ioos:station:WAVCIS:CSI09:1,2008-01-04T04:00:00Z,29.1015,-89.9782,1035.36,11111222 
WAVCIS,ioos:station:WAVCIS:CSI09:1,2008-01-04T05:00:00Z,29.1015,-89.9782,1034.77,11111222 
WAVCIS,ioos:station:WAVCIS:CSI09:1,2008-01-04T06:00:00Z,29.1015,-89.9782,1033.78,11111222 
WAVCIS,ioos:station:WAVCIS:CSI09:1,2008-01-04T07:00:00Z,29.1015,-89.9782,1032.7,11111222 
WAVCIS,ioos:station:WAVCIS:CSI09:1,2008-01-04T08:00:00Z,29.1015,-89.9782,1032.65,11111222 
WAVCIS,ioos:station:WAVCIS:CSI09:1,2008-01-04T09:00:00Z,29.1015,-89.9782,1032.21,11111222 
WAVCIS,ioos:station:WAVCIS:CSI09:1,2008-01-04T10:00:00Z,29.1015,-89.9782,1032.03,11111222 
WAVCIS,ioos:station:WAVCIS:CSI09:1,2008-01-04T11:00:00Z,29.1015,-89.9782,1031.91,11111222 
WAVCIS,ioos:station:WAVCIS:CSI09:1,2008-01-04T12:00:00Z,29.1015,-89.9782,1032.43,11111222 
WAVCIS,ioos:station:WAVCIS:CSI09:1,2008-01-04T13:00:00Z,29.1015,-89.9782,1032.59,11111222 
WAVCIS,ioos:station:WAVCIS:CSI09:1,2008-01-04T14:00:00Z,29.1015,-89.9782,1032.81,11111222 
WAVCIS,ioos:station:WAVCIS:CSI09:1,2008-01-04T15:00:00Z,29.1015,-89.9782,1033.07,11111222 
WAVCIS,ioos:station:WAVCIS:CSI09:1,2008-01-04T16:00:00Z,29.1015,-89.9782,1033.24,11111222 
WAVCIS,ioos:station:WAVCIS:CSI09:1,2008-01-04T17:00:00Z,29.1015,-89.9782,1032.95,11111222 
WAVCIS,ioos:station:WAVCIS:CSI09:1,2008-01-04T18:00:00Z,29.1015,-89.9782,1032.51,11111222 
WAVCIS,ioos:station:WAVCIS:CSI09:1,2008-01-04T19:00:00Z,29.1015,-89.9782,1031.24,11111222 
WAVCIS,ioos:station:WAVCIS:CSI09:1,2008-01-04T20:00:00Z,29.1015,-89.9782,1030.13,11111222 
WAVCIS,ioos:station:WAVCIS:CSI09:1,2008-01-04T21:00:00Z,29.1015,-89.9782,1029.82,11111222 
WAVCIS,ioos:station:WAVCIS:CSI09:1,2008-01-04T22:00:00Z,29.1015,-89.9782,1029.36,11111222 
WAVCIS,ioos:station:WAVCIS:CSI09:1,2008-01-04T23:00:00Z,29.1015,-89.9782,1029.37,11111222 
WAVCIS,ioos:station:WAVCIS:CSI09:1,2008-01-05T00:00:00Z,29.1015,-89.9782,1028.88,11111222 
WAVCIS,ioos:station:WAVCIS:CSI09:1,2008-01-05T01:00:00Z,29.1015,-89.9782,1028.66,11111222 
WAVCIS,ioos:station:WAVCIS:CSI09:1,2008-01-05T02:00:00Z,29.1015,-89.9782,1028.59,11111222 
WAVCIS,ioos:station:WAVCIS:CSI09:1,2008-01-05T03:00:00Z,29.1015,-89.9782,1028.27,11111222 
WAVCIS,ioos:station:WAVCIS:CSI09:1,2008-01-05T04:00:00Z,29.1015,-89.9782,1027.96,11111222 
WAVCIS,ioos:station:WAVCIS:CSI09:1,2008-01-05T05:00:00Z,29.1015,-89.9782,1027.28,11111222 
WAVCIS,ioos:station:WAVCIS:CSI09:1,2008-01-05T06:00:00Z,29.1015,-89.9782,1026.56,11111222 
WAVCIS,ioos:station:WAVCIS:CSI09:1,2008-01-05T07:00:00Z,29.1015,-89.9782,1025.6,11111222 
WAVCIS,ioos:station:WAVCIS:CSI09:1,2008-01-05T08:00:00Z,29.1015,-89.9782,1025.33,11111222 
WAVCIS,ioos:station:WAVCIS:CSI09:1,2008-01-05T09:00:00Z,29.1015,-89.9782,1024.72,11111222 
WAVCIS,ioos:station:WAVCIS:CSI09:1,2008-01-05T10:00:00Z,29.1015,-89.9782,1024.3,11111222 
WAVCIS,ioos:station:WAVCIS:CSI09:1,2008-01-05T11:00:00Z,29.1015,-89.9782,1023.82,11111222 
WAVCIS,ioos:station:WAVCIS:CSI09:1,2008-01-05T12:00:00Z,29.1015,-89.9782,1024.23,11111222 
WAVCIS,ioos:station:WAVCIS:CSI09:1,2008-01-05T13:00:00Z,29.1015,-89.9782,1024.62,11111222 
WAVCIS,ioos:station:WAVCIS:CSI09:1,2008-01-05T14:00:00Z,29.1015,-89.9782,1024.97,11111222 
WAVCIS,ioos:station:WAVCIS:CSI09:1,2008-01-05T15:00:00Z,29.1015,-89.9782,1025.14,11111222 
WAVCIS,ioos:station:WAVCIS:CSI09:1,2008-01-05T16:00:00Z,29.1015,-89.9782,1025.62,11111222 
WAVCIS,ioos:station:WAVCIS:CSI09:1,2008-01-05T17:00:00Z,29.1015,-89.9782,1025.09,11111222 
WAVCIS,ioos:station:WAVCIS:CSI09:1,2008-01-05T18:00:00Z,29.1015,-89.9782,1024.62,11111222 
WAVCIS,ioos:station:WAVCIS:CSI09:1,2008-01-05T19:00:00Z,29.1015,-89.9782,1023.72,11111222 
WAVCIS,ioos:station:WAVCIS:CSI09:1,2008-01-05T20:00:00Z,29.1015,-89.9782,1022.59,11111222 
WAVCIS,ioos:station:WAVCIS:CSI09:1,2008-01-05T21:00:00Z,29.1015,-89.9782,1022.61,11111222 
WAVCIS,ioos:station:WAVCIS:CSI09:1,2008-01-05T22:00:00Z,29.1015,-89.9782,1021.87,11111222 
WAVCIS,ioos:station:WAVCIS:CSI09:1,2008-01-05T23:00:00Z,29.1015,-89.9782,1021.84,11111222 
WAVCIS,ioos:station:WAVCIS:CSI09:1,2008-01-06T00:00:00Z,29.1015,-89.9782,1022.05,11111222 
WAVCIS,ioos:station:WAVCIS:CSI09:1,2008-01-06T01:00:00Z,29.1015,-89.9782,1022.14,11111222 
WAVCIS,ioos:station:WAVCIS:CSI09:1,2008-01-06T02:00:00Z,29.1015,-89.9782,1022.44,11111222 
WAVCIS,ioos:station:WAVCIS:CSI09:1,2008-01-06T03:00:00Z,29.1015,-89.9782,1022.36,11111222 
WAVCIS,ioos:station:WAVCIS:CSI09:1,2008-01-06T04:00:00Z,29.1015,-89.9782,1022.32,11111222 
WAVCIS,ioos:station:WAVCIS:CSI09:1,2008-01-06T05:00:00Z,29.1015,-89.9782,1022.1,11111222 
WAVCIS,ioos:station:WAVCIS:CSI09:1,2008-01-06T06:00:00Z,29.1015,-89.9782,1021.81,11111222 
WAVCIS,ioos:station:WAVCIS:CSI09:1,2008-01-06T07:00:00Z,29.1015,-89.9782,1021.33,11111222 
WAVCIS,ioos:station:WAVCIS:CSI09:1,2008-01-06T08:00:00Z,29.1015,-89.9782,1021.05,11111222 
WAVCIS,ioos:station:WAVCIS:CSI09:1,2008-01-06T09:00:00Z,29.1015,-89.9782,1020.98,11111222 
WAVCIS,ioos:station:WAVCIS:CSI09:1,2008-01-06T10:00:00Z,29.1015,-89.9782,1021.0,11111222 
WAVCIS,ioos:station:WAVCIS:CSI09:1,2008-01-06T11:00:00Z,29.1015,-89.9782,1020.88,11111222 
WAVCIS,ioos:station:WAVCIS:CSI09:1,2008-01-06T12:00:00Z,29.1015,-89.9782,1021.06,11111222 
WAVCIS,ioos:station:WAVCIS:CSI09:1,2008-01-06T13:00:00Z,29.1015,-89.9782,1021.27,11111222 
WAVCIS,ioos:station:WAVCIS:CSI09:1,2008-01-06T14:00:00Z,29.1015,-89.9782,1021.87,11111222 
WAVCIS,ioos:station:WAVCIS:CSI09:1,2008-01-06T15:00:00Z,29.1015,-89.9782,1022.57,11111222 
WAVCIS,ioos:station:WAVCIS:CSI09:1,2008-01-06T16:00:00Z,29.1015,-89.9782,1022.92,11111222 
WAVCIS,ioos:station:WAVCIS:CSI09:1,2008-01-06T17:00:00Z,29.1015,-89.9782,1022.71,11111222 
WAVCIS,ioos:station:WAVCIS:CSI09:1,2008-01-06T18:00:00Z,29.1015,-89.9782,1022.01,11111222 
WAVCIS,ioos:station:WAVCIS:CSI09:1,2008-01-06T19:00:00Z,29.1015,-89.9782,1021.1,11111222 
WAVCIS,ioos:station:WAVCIS:CSI09:1,2008-01-06T20:00:00Z,29.1015,-89.9782,1020.6,11111222 
WAVCIS,ioos:station:WAVCIS:CSI09:1,2008-01-06T21:00:00Z,29.1015,-89.9782,1020.29,11111222 
WAVCIS,ioos:station:WAVCIS:CSI09:1,2008-01-06T22:00:00Z,29.1015,-89.9782,1020.27,11111222 
WAVCIS,ioos:station:WAVCIS:CSI09:1,2008-01-06T23:00:00Z,29.1015,-89.9782,1020.35,11111222 
WAVCIS,ioos:station:WAVCIS:CSI09:1,2008-01-07T00:00:00Z,29.1015,-89.9782,1020.39,11111222 
WAVCIS,ioos:station:WAVCIS:CSI09:1,2008-01-07T01:00:00Z,29.1015,-89.9782,1020.67,11111222 
WAVCIS,ioos:station:WAVCIS:CSI09:1,2008-01-07T02:00:00Z,29.1015,-89.9782,1021.09,11111222 
WAVCIS,ioos:station:WAVCIS:CSI09:1,2008-01-07T03:00:00Z,29.1015,-89.9782,1021.11,11111222 
WAVCIS,ioos:station:WAVCIS:CSI09:1,2008-01-07T04:00:00Z,29.1015,-89.9782,1021.21,11111222 
WAVCIS,ioos:station:WAVCIS:CSI09:1,2008-01-07T05:00:00Z,29.1015,-89.9782,1020.98,11111222 
WAVCIS,ioos:station:WAVCIS:CSI09:1,2008-01-07T06:00:00Z,29.1015,-89.9782,1020.45,11111222 
WAVCIS,ioos:station:WAVCIS:CSI09:1,2008-01-07T07:00:00Z,29.1015,-89.9782,1020.21,11111222 
WAVCIS,ioos:station:WAVCIS:CSI09:1,2008-01-07T08:00:00Z,29.1015,-89.9782,1020.12,11111222 
WAVCIS,ioos:station:WAVCIS:CSI09:1,2008-01-07T09:00:00Z,29.1015,-89.9782,1019.83,11111222 
WAVCIS,ioos:station:WAVCIS:CSI09:1,2008-01-07T10:00:00Z,29.1015,-89.9782,1019.82,11111222 
WAVCIS,ioos:station:WAVCIS:CSI09:1,2008-01-07T11:00:00Z,29.1015,-89.9782,1019.56,11111222 
WAVCIS,ioos:station:WAVCIS:CSI09:1,2008-01-07T12:00:00Z,29.1015,-89.9782,1019.65,11111222 
WAVCIS,ioos:station:WAVCIS:CSI09:1,2008-01-07T13:00:00Z,29.1015,-89.9782,1019.93,11111222 
WAVCIS,ioos:station:WAVCIS:CSI09:1,2008-01-07T14:00:00Z,29.1015,-89.9782,1020.67,11111222 
WAVCIS,ioos:station:WAVCIS:CSI09:1,2008-01-07T15:00:00Z,29.1015,-89.9782,1021.01,11111222 
WAVCIS,ioos:station:WAVCIS:CSI09:1,2008-01-07T16:00:00Z,29.1015,-89.9782,1021.77,11111222 
WAVCIS,ioos:station:WAVCIS:CSI09:1,2008-01-07T17:00:00Z,29.1015,-89.9782,1021.84,11111222 
WAVCIS,ioos:station:WAVCIS:CSI09:1,2008-01-07T18:00:00Z,29.1015,-89.9782,1021.1,11111222 
WAVCIS,ioos:station:WAVCIS:CSI09:1,2008-01-07T19:00:00Z,29.1015,-89.9782,1020.05,11111222 
WAVCIS,ioos:station:WAVCIS:CSI09:1,2008-01-07T20:00:00Z,29.1015,-89.9782,1019.13,11111222 
WAVCIS,ioos:station:WAVCIS:CSI09:1,2008-01-07T21:00:00Z,29.1015,-89.9782,1018.8,11111222 
WAVCIS,ioos:station:WAVCIS:CSI09:1,2008-01-07T22:00:00Z,29.1015,-89.9782,1018.85,11111222 
WAVCIS,ioos:station:WAVCIS:CSI09:1,2008-01-07T23:00:00Z,29.1015,-89.9782,1019.0,11111222 
WAVCIS,ioos:station:WAVCIS:CSI09:1,2008-01-08T00:00:00Z,29.1015,-89.9782,1019.08,11111222 
WAVCIS,ioos:station:WAVCIS:CSI09:1,2008-01-08T01:00:00Z,29.1015,-89.9782,1019.23,11111222 
WAVCIS,ioos:station:WAVCIS:CSI09:1,2008-01-08T02:00:00Z,29.1015,-89.9782,1019.32,11111222 
WAVCIS,ioos:station:WAVCIS:CSI09:1,2008-01-08T03:00:00Z,29.1015,-89.9782,1019.68,11111222 
WAVCIS,ioos:station:WAVCIS:CSI09:1,2008-01-08T04:00:00Z,29.1015,-89.9782,1019.49,11111222 
WAVCIS,ioos:station:WAVCIS:CSI09:1,2008-01-08T05:00:00Z,29.1015,-89.9782,1019.05,11111222 
WAVCIS,ioos:station:WAVCIS:CSI09:1,2008-01-08T06:00:00Z,29.1015,-89.9782,1018.43,11111222 
WAVCIS,ioos:station:WAVCIS:CSI09:1,2008-01-08T07:00:00Z,29.1015,-89.9782,1017.75,11111222 
WAVCIS,ioos:station:WAVCIS:CSI09:1,2008-01-08T08:00:00Z,29.1015,-89.9782,1017.87,11111222 
WAVCIS,ioos:station:WAVCIS:CSI09:1,2008-01-08T09:00:00Z,29.1015,-89.9782,1017.54,11111222 
WAVCIS,ioos:station:WAVCIS:CSI09:1,2008-01-08T10:00:00Z,29.1015,-89.9782,1016.48,11111222 
WAVCIS,ioos:station:WAVCIS:CSI09:1,2008-01-08T11:00:00Z,29.1015,-89.9782,1016.99,11111222 
WAVCIS,ioos:station:WAVCIS:CSI09:1,2008-01-08T12:00:00Z,29.1015,-89.9782,1017.3,11111222 
WAVCIS,ioos:station:WAVCIS:CSI09:1,2008-01-08T13:00:00Z,29.1015,-89.9782,1017.48,11111222 
WAVCIS,ioos:station:WAVCIS:CSI09:1,2008-01-08T14:00:00Z,29.1015,-89.9782,1017.96,11111222 
WAVCIS,ioos:station:WAVCIS:CSI09:1,2008-01-08T15:00:00Z,29.1015,-89.9782,1018.45,11111222 
WAVCIS,ioos:station:WAVCIS:CSI09:1,2008-01-08T16:00:00Z,29.1015,-89.9782,1019.13,11111222 
WAVCIS,ioos:station:WAVCIS:CSI09:1,2008-01-08T17:00:00Z,29.1015,-89.9782,1018.61,11111222 
WAVCIS,ioos:station:WAVCIS:CSI09:1,2008-01-08T18:00:00Z,29.1015,-89.9782,1017.77,11111222 
WAVCIS,ioos:station:WAVCIS:CSI09:1,2008-01-08T19:00:00Z,29.1015,-89.9782,1016.89,11111222 
WAVCIS,ioos:station:WAVCIS:CSI09:1,2008-01-08T20:00:00Z,29.1015,-89.9782,1016.67,11111222 
WAVCIS,ioos:station:WAVCIS:CSI09:1,2008-01-08T21:00:00Z,29.1015,-89.9782,1016.58,11111222 
WAVCIS,ioos:station:WAVCIS:CSI09:1,2008-01-08T22:00:00Z,29.1015,-89.9782,1016.94,11111222 
WAVCIS,ioos:station:WAVCIS:CSI09:1,2008-01-08T23:00:00Z,29.1015,-89.9782,1017.43,11111222 
WAVCIS,ioos:station:WAVCIS:CSI09:1,2008-01-09T00:00:00Z,29.1015,-89.9782,1017.79,11111222 
WAVCIS,ioos:station:WAVCIS:CSI09:1,2008-01-09T01:00:00Z,29.1015,-89.9782,1017.99,11111222 
WAVCIS,ioos:station:WAVCIS:CSI09:1,2008-01-09T02:00:00Z,29.1015,-89.9782,1017.92,11111222 
WAVCIS,ioos:station:WAVCIS:CSI09:1,2008-01-09T03:00:00Z,29.1015,-89.9782,1017.95,11111222 
WAVCIS,ioos:station:WAVCIS:CSI09:1,2008-01-09T04:00:00Z,29.1015,-89.9782,1017.83,11111222 
WAVCIS,ioos:station:WAVCIS:CSI09:1,2008-01-09T05:00:00Z,29.1015,-89.9782,1017.8,11111222 
WAVCIS,ioos:station:WAVCIS:CSI09:1,2008-01-09T06:00:00Z,29.1015,-89.9782,1017.54,11111222 
WAVCIS,ioos:station:WAVCIS:CSI09:1,2008-01-09T07:00:00Z,29.1015,-89.9782,1017.19,11111222 
WAVCIS,ioos:station:WAVCIS:CSI09:1,2008-01-09T08:00:00Z,29.1015,-89.9782,1016.93,11111222 
WAVCIS,ioos:station:WAVCIS:CSI09:1,2008-01-09T09:00:00Z,29.1015,-89.9782,1016.69,11111222 
WAVCIS,ioos:station:WAVCIS:CSI09:1,2008-01-09T10:00:00Z,29.1015,-89.9782,1016.73,11111222 
WAVCIS,ioos:station:WAVCIS:CSI09:1,2008-01-09T11:00:00Z,29.1015,-89.9782,1017.09,11111222 
WAVCIS,ioos:station:WAVCIS:CSI09:1,2008-01-09T12:00:00Z,29.1015,-89.9782,1017.64,11111222 
WAVCIS,ioos:station:WAVCIS:CSI09:1,2008-01-09T13:00:00Z,29.1015,-89.9782,1018.03,11111222 
WAVCIS,ioos:station:WAVCIS:CSI09:1,2008-01-09T14:00:00Z,29.1015,-89.9782,1018.35,11111222 
WAVCIS,ioos:station:WAVCIS:CSI09:1,2008-01-09T15:00:00Z,29.1015,-89.9782,1018.97,11111222 
WAVCIS,ioos:station:WAVCIS:CSI09:1,2008-01-09T16:00:00Z,29.1015,-89.9782,1019.59,11111222 
WAVCIS,ioos:station:WAVCIS:CSI09:1,2008-01-09T17:00:00Z,29.1015,-89.9782,1018.42,11111222 
WAVCIS,ioos:station:WAVCIS:CSI09:1,2008-01-09T18:00:00Z,29.1015,-89.9782,1017.86,11111222 
WAVCIS,ioos:station:WAVCIS:CSI09:1,2008-01-09T19:00:00Z,29.1015,-89.9782,1016.61,11111222 
WAVCIS,ioos:station:WAVCIS:CSI09:1,2008-01-09T20:00:00Z,29.1015,-89.9782,1015.69,11111222 
WAVCIS,ioos:station:WAVCIS:CSI09:1,2008-01-09T21:00:00Z,29.1015,-89.9782,1015.42,11111222 
WAVCIS,ioos:station:WAVCIS:CSI09:1,2008-01-09T22:00:00Z,29.1015,-89.9782,1015.56,11111222 
WAVCIS,ioos:station:WAVCIS:CSI09:1,2008-01-09T23:00:00Z,29.1015,-89.9782,1015.62,11111222 
WAVCIS,ioos:station:WAVCIS:CSI09:1,2008-01-10T00:00:00Z,29.1015,-89.9782,1015.75,11111222 
WAVCIS,ioos:station:WAVCIS:CSI09:1,2008-01-10T01:00:00Z,29.1015,-89.9782,1016.1,11111222 
WAVCIS,ioos:station:WAVCIS:CSI09:1,2008-01-10T02:00:00Z,29.1015,-89.9782,1016.21,11111222 
WAVCIS,ioos:station:WAVCIS:CSI09:1,2008-01-10T03:00:00Z,29.1015,-89.9782,1016.02,11111222 
WAVCIS,ioos:station:WAVCIS:CSI09:1,2008-01-10T04:00:00Z,29.1015,-89.9782,1015.78,11111222 
WAVCIS,ioos:station:WAVCIS:CSI09:1,2008-01-10T05:00:00Z,29.1015,-89.9782,1015.29,11111222 
WAVCIS,ioos:station:WAVCIS:CSI09:1,2008-01-10T06:00:00Z,29.1015,-89.9782,1014.61,11111222 
WAVCIS,ioos:station:WAVCIS:CSI09:1,2008-01-10T07:00:00Z,29.1015,-89.9782,1014.04,11111222 
WAVCIS,ioos:station:WAVCIS:CSI09:1,2008-01-10T08:00:00Z,29.1015,-89.9782,1013.59,11111222 
WAVCIS,ioos:station:WAVCIS:CSI09:1,2008-01-10T09:00:00Z,29.1015,-89.9782,1013.16,11111222 
WAVCIS,ioos:station:WAVCIS:CSI09:1,2008-01-10T10:00:00Z,29.1015,-89.9782,1012.7,11111222 
WAVCIS,ioos:station:WAVCIS:CSI09:1,2008-01-10T11:00:00Z,29.1015,-89.9782,1012.56,11111222 
WAVCIS,ioos:station:WAVCIS:CSI09:1,2008-01-10T12:00:00Z,29.1015,-89.9782,1013.15,11111222 
WAVCIS,ioos:station:WAVCIS:CSI09:1,2008-01-10T13:00:00Z,29.1015,-89.9782,1014.02,11111222 
WAVCIS,ioos:station:WAVCIS:CSI09:1,2008-01-10T14:00:00Z,29.1015,-89.9782,1014.27,11111222 
WAVCIS,ioos:station:WAVCIS:CSI09:1,2008-01-10T15:00:00Z,29.1015,-89.9782,1013.94,11111222 
WAVCIS,ioos:station:WAVCIS:CSI09:1,2008-01-10T16:00:00Z,29.1015,-89.9782,1013.92,11111222 
WAVCIS,ioos:station:WAVCIS:CSI09:1,2008-01-10T17:00:00Z,29.1015,-89.9782,1013.23,11111222 
WAVCIS,ioos:station:WAVCIS:CSI09:1,2008-01-10T18:00:00Z,29.1015,-89.9782,1011.89,11111222 
WAVCIS,ioos:station:WAVCIS:CSI09:1,2008-01-10T19:00:00Z,29.1015,-89.9782,1010.76,11111222 
WAVCIS,ioos:station:WAVCIS:CSI09:1,2008-01-10T20:00:00Z,29.1015,-89.9782,1010.28,11111222 
WAVCIS,ioos:station:WAVCIS:CSI09:1,2008-01-10T21:00:00Z,29.1015,-89.9782,1009.84,11111222 
WAVCIS,ioos:station:WAVCIS:CSI09:1,2008-01-10T22:00:00Z,29.1015,-89.9782,1010.21,11111222 
WAVCIS,ioos:station:WAVCIS:CSI09:1,2008-01-10T23:00:00Z,29.1015,-89.9782,1010.21,11111222 
WAVCIS,ioos:station:WAVCIS:CSI09:1,2008-01-11T00:00:00Z,29.1015,-89.9782,1010.34,11111222 
WAVCIS,ioos:station:WAVCIS:CSI09:1,2008-01-11T01:00:00Z,29.1015,-89.9782,1010.57,11111222 
WAVCIS,ioos:station:WAVCIS:CSI09:1,2008-01-11T02:00:00Z,29.1015,-89.9782,1010.41,11111222 
WAVCIS,ioos:station:WAVCIS:CSI09:1,2008-01-11T03:00:00Z,29.1015,-89.9782,1010.36,11111222 
WAVCIS,ioos:station:WAVCIS:CSI09:1,2008-01-11T04:00:00Z,29.1015,-89.9782,1010.36,11111222 
WAVCIS,ioos:station:WAVCIS:CSI09:1,2008-01-11T05:00:00Z,29.1015,-89.9782,1010.19,11111222 
WAVCIS,ioos:station:WAVCIS:CSI09:1,2008-01-11T06:00:00Z,29.1015,-89.9782,1010.44,11111222 
WAVCIS,ioos:station:WAVCIS:CSI09:1,2008-01-11T07:00:00Z,29.1015,-89.9782,1010.49,11111222 
WAVCIS,ioos:station:WAVCIS:CSI09:1,2008-01-11T08:00:00Z,29.1015,-89.9782,1010.53,11111222 
WAVCIS,ioos:station:WAVCIS:CSI09:1,2008-01-11T09:00:00Z,29.1015,-89.9782,1010.03,11111222 
WAVCIS,ioos:station:WAVCIS:CSI09:1,2008-01-11T10:00:00Z,29.1015,-89.9782,1010.65,11111222 
WAVCIS,ioos:station:WAVCIS:CSI09:1,2008-01-11T11:00:00Z,29.1015,-89.9782,1010.84,11111222 
WAVCIS,ioos:station:WAVCIS:CSI09:1,2008-01-11T12:00:00Z,29.1015,-89.9782,1011.43,11111222 
WAVCIS,ioos:station:WAVCIS:CSI09:1,2008-01-11T13:00:00Z,29.1015,-89.9782,1011.9,11111222 
WAVCIS,ioos:station:WAVCIS:CSI09:1,2008-01-11T14:00:00Z,29.1015,-89.9782,1012.62,11111222 
WAVCIS,ioos:station:WAVCIS:CSI09:1,2008-01-11T15:00:00Z,29.1015,-89.9782,1013.04,11111222 
WAVCIS,ioos:station:WAVCIS:CSI09:1,2008-01-11T16:00:00Z,29.1015,-89.9782,1013.77,11111222 
WAVCIS,ioos:station:WAVCIS:CSI09:1,2008-01-11T17:00:00Z,29.1015,-89.9782,1013.36,11111222 
WAVCIS,ioos:station:WAVCIS:CSI09:1,2008-01-11T18:00:00Z,29.1015,-89.9782,1012.03,11111222 
WAVCIS,ioos:station:WAVCIS:CSI09:1,2008-01-11T19:00:00Z,29.1015,-89.9782,1011.59,11111222 
WAVCIS,ioos:station:WAVCIS:CSI09:1,2008-01-11T20:00:00Z,29.1015,-89.9782,1011.24,11111222 
WAVCIS,ioos:station:WAVCIS:CSI09:1,2008-01-11T21:00:00Z,29.1015,-89.9782,1011.18,11111222 
WAVCIS,ioos:station:WAVCIS:CSI09:1,2008-01-11T22:00:00Z,29.1015,-89.9782,1011.33,11111222 